Location: Home
(42.5358°N, 72.7383°W)
Time: 17:14:13
(UTC-04:00)

Explorer 11/Cluster Stage 4 - Pass Details

Date: 08 August 2024
Orbit: 464 x 1208 km, 28.8° (Epoch: 19 September)

Event Time Altitude Azimuth Distance (km) Brightness Sun altitude
Rises 01:55:31 0° 242° (WSW) 3,683 - -29.9°
Maximum altitude 02:04:18 28° 175° (S) 2,002 - -29.4°
Exits shadow 02:09:51 13° 125° (SE) 2,906 9.3 -29.1°
Drops below altitude 10° 02:10:40 10° 122° (ESE) 3,124 9.5 -29.1°
Sets 02:14:04 0° 111° (ESE) 4,109 10.3 -28.8°
